Location: Columbia
(38.9520°N, 92.3340°W)
Time: 16:14:06
(UTC-06:00)

Cosmos 2219 Rocket - Visible Passes

Search period start: 21 December 2014 00:00
Search period end: 31 December 2014 00:00
Orbit: 827 x 848 km, 71.0° (Epoch: 20 December)

Date Brightness Start Highest point End Pass type
(mag) Time Alt. Az. Time Alt. Az. Time Alt. Az.
21 Dec 5.1 05:14:32 10° SE 05:18:03 17° E 05:21:35 10° ENE visible
21 Dec 5.0 17:35:35 10° NW 17:39:40 21° W 17:43:44 10° SSW visible
22 Dec 5.1 04:58:36 10° SE 05:01:50 16° E 05:05:04 10° ENE visible
22 Dec 2.2 06:39:30 10° SSW 06:45:08 66° WNW 06:50:48 10° NNE visible
22 Dec 5.0 17:19:09 10° NW 17:23:26 23° W 17:27:41 10° SSW visible
23 Dec 5.2 04:42:44 10° SE 04:45:37 14° E 04:48:30 10° ENE visible
23 Dec 2.1 06:23:12 10° SSW 06:28:51 72° WNW 06:34:32 10° NNE visible
24 Dec 5.2 04:26:56 10° ESE 04:29:23 13° E 04:31:51 10° ENE visible
24 Dec 2.1 06:06:54 10° SSW 06:12:34 77° WNW 06:18:16 10° NNE visible
25 Dec 5.2 04:11:14 10° ESE 04:13:10 12° E 04:15:07 10° ENE visible
25 Dec 2.1 05:50:37 10° SSW 05:56:17 83° WNW 06:02:00 10° NNE visible
26 Dec 5.2 03:55:49 10° ESE 03:56:58 11° E 03:58:06 10° E visible
26 Dec 2.1 05:34:21 10° SSW 05:40:01 89° WNW 05:45:43 10° NNE visible
27 Dec 2.2 05:18:05 10° SSW 05:23:45 85° ESE 05:29:27 10° NNE visible
28 Dec 2.2 05:01:49 10° SSW 05:07:28 79° ESE 05:13:10 10° NNE visible
28 Dec 3.6 06:48:40 10° W 06:52:06 16° NW 06:55:32 10° NNW visible
29 Dec 2.3 04:50:36 66° SSE 04:51:12 73° ESE 04:56:52 10° NNE visible
29 Dec 3.6 06:32:30 11° W 06:35:45 17° NW 06:39:25 10° N visible
30 Dec 3.0 04:36:42 44° NE 04:36:42 44° NE 04:40:34 10° NNE visible
30 Dec 3.5 06:18:32 18° WNW 06:19:25 19° NW 06:23:18 10° N visible
